STPSAT-6

Last updated on Sun Jun 21 2026 00:03:08 GMT+0000 (Coordinated Universal Time)

1 49817U 21118A 26171.44628338 -.00000050 00000+0 00000+0 0 9991 2 49817 0.3304 85.3568 0001185 256.6364 335.6712 1.00269666 16609
UTC large
Height (km)
Speed (km/s)
/
Latitude / Longitude
Inclination (degrees)
Orbital Period (minutes)
Azimuth
Elevation
Range (km)
Doppler Factor

Next 0 passes for location: London (51.5072 / 0.1276)

No passes found over London.
STPSAT-6